N8351P KANK-KBJC

Flight info

Callsign N8351P
Flight time N/A
Altitude 15500
Route LOZUL VPTTC VPKEN BAYLR VONNN ZENLO
Aircraft PA24/L-SDGRY/S

Departure

Time 2026-05-07 18:36
Airport Salida Airport - Harriet Alexander Field (KANK)

Arrival

Time N/A
Airport Rocky Mountain Metropolitan Airport (KBJC)
Time Latitude Longitude Altitude Speed Heading
2026-05-07 17:59 38.53643 -106.04990 7466 ft 0 kts 346°
2026-05-07 18:26 38.53645 -106.04992 7466 ft 2 kts 337°
2026-05-07 18:27 38.53646 -106.05014 7467 ft 8 kts 244°
2026-05-07 18:27 38.53665 -106.05078 7470 ft 10 kts 311°
2026-05-07 18:27 38.53662 -106.05153 7472 ft 9 kts 251°
2026-05-07 18:27 38.53639 -106.05228 7479 ft 9 kts 252°
2026-05-07 18:28 38.53618 -106.05303 7483 ft 9 kts 251°
2026-05-07 18:28 38.53595 -106.05385 7487 ft 11 kts 252°
2026-05-07 18:28 38.53570 -106.05475 7492 ft 11 kts 251°
2026-05-07 18:28 38.53547 -106.05570 7497 ft 10 kts 251°
2026-05-07 18:29 38.53522 -106.05657 7503 ft 10 kts 248°
2026-05-07 18:29 38.53498 -106.05744 7508 ft 11 kts 253°
2026-05-07 18:29 38.53473 -106.05839 7509 ft 12 kts 250°
2026-05-07 18:29 38.53444 -106.05939 7513 ft 12 kts 250°
2026-05-07 18:30 38.53424 -106.06018 7523 ft 6 kts 259°
2026-05-07 18:30 38.53432 -106.06042 7525 ft 0 kts 345°
2026-05-07 18:34 38.53451 -106.06049 7525 ft 9 kts 341°
2026-05-07 18:35 38.53508 -106.06033 7509 ft 16 kts 72°
2026-05-07 18:35 38.53626 -106.05585 7497 ft 84 kts 73°
2026-05-07 18:35 38.53851 -106.04800 7572 ft 101 kts 73°
2026-05-07 18:35 38.54069 -106.03922 7783 ft 108 kts 73°
2026-05-07 18:36 38.54625 -106.03340 7983 ft 110 kts 359°
2026-05-07 18:36 38.55292 -106.03692 8272 ft 96 kts 317°
2026-05-07 18:36 38.55824 -106.04157 8520 ft 91 kts 320°
2026-05-07 18:36 38.56340 -106.04628 8731 ft 91 kts 319°
2026-05-07 18:37 38.56845 -106.05097 8959 ft 89 kts 322°
2026-05-07 18:37 38.57389 -106.05481 9160 ft 91 kts 332°
2026-05-07 18:37 38.58012 -106.05697 9316 ft 95 kts 348°
2026-05-07 18:37 38.58661 -106.05831 9498 ft 95 kts 345°
2026-05-07 18:38 38.59305 -106.05969 9683 ft 94 kts 345°
2026-05-07 18:38 38.59952 -106.06116 9843 ft 94 kts 343°
2026-05-07 18:38 38.60588 -106.06267 10021 ft 92 kts 342°
2026-05-07 18:38 38.61216 -106.06397 10184 ft 91 kts 340°
2026-05-07 18:39 38.61836 -106.06535 10340 ft 91 kts 346°
2026-05-07 18:39 38.62466 -106.06626 10494 ft 90 kts 346°
2026-05-07 18:39 38.63094 -106.06682 10645 ft 92 kts 348°
2026-05-07 18:39 38.63718 -106.06746 10785 ft 89 kts 350°
2026-05-07 18:40 38.64346 -106.06650 10944 ft 90 kts 360°
2026-05-07 18:40 38.64971 -106.06568 11077 ft 93 kts 352°
2026-05-07 18:40 38.65591 -106.06647 11255 ft 85 kts 341°
2026-05-07 18:40 38.66167 -106.06839 11397 ft 85 kts 335°
2026-05-07 18:41 38.66721 -106.07048 11528 ft 82 kts 341°
2026-05-07 18:41 38.67306 -106.07092 11672 ft 86 kts 351°
2026-05-07 18:41 38.67903 -106.07092 11828 ft 86 kts 349°
2026-05-07 18:41 38.68502 -106.07160 11953 ft 85 kts 345°
2026-05-07 18:42 38.69083 -106.07270 12114 ft 83 kts 339°
2026-05-07 18:42 38.69650 -106.07416 12226 ft 83 kts 342°
2026-05-07 18:42 38.70256 -106.07332 12337 ft 90 kts
2026-05-07 18:42 38.70862 -106.07169 12499 ft 90 kts 359°
2026-05-07 18:43 38.71487 -106.07011 12634 ft 91 kts
2026-05-07 18:43 38.72095 -106.06855 12789 ft 89 kts 356°
2026-05-07 18:43 38.72705 -106.06790 12920 ft 88 kts 351°
2026-05-07 18:43 38.73312 -106.06770 13043 ft 86 kts 351°
2026-05-07 18:44 38.73905 -106.06752 13176 ft 85 kts 352°
2026-05-07 18:44 38.74500 -106.06720 13312 ft 85 kts 352°
2026-05-07 18:44 38.75089 -106.06672 13427 ft 85 kts 352°
2026-05-07 18:44 38.75677 -106.06628 13572 ft 84 kts 352°
2026-05-07 18:45 38.76273 -106.06593 13682 ft 87 kts 352°
2026-05-07 18:45 38.76870 -106.06557 13820 ft 86 kts 352°
2026-05-07 18:45 38.77467 -106.06503 13916 ft 86 kts 356°
2026-05-07 18:45 38.78034 -106.06167 13988 ft 95 kts 21°
2026-05-07 18:46 38.78564 -106.05691 14126 ft 96 kts 23°
2026-05-07 18:46 38.79174 -106.05160 14102 ft 113 kts 24°
2026-05-07 18:46 38.79860 -106.04584 14052 ft 128 kts 23°
2026-05-07 18:46 38.80637 -106.03954 14081 ft 132 kts 24°
2026-05-07 18:47 38.81451 -106.03329 14029 ft 143 kts 22°
2026-05-07 18:47 38.82322 -106.02664 13960 ft 151 kts 24°
2026-05-07 18:47 38.83260 -106.01959 13846 ft 160 kts 25°
2026-05-07 18:47 38.84220 -106.01254 13868 ft 157 kts 22°
2026-05-07 18:48 38.85189 -106.00533 13692 ft 167 kts 24°
2026-05-07 18:48 38.86217 -105.99783 13564 ft 168 kts 22°
2026-05-07 18:48 38.87224 -105.99069 13537 ft 164 kts 24°
2026-05-07 18:48 38.88213 -105.98332 13509 ft 162 kts 22°
2026-05-07 18:49 38.89174 -105.97606 13503 ft 159 kts 22°
2026-05-07 18:49 38.90168 -105.96998 13487 ft 157 kts 17°
2026-05-07 18:49 38.91140 -105.96384 13488 ft 155 kts 18°
2026-05-07 18:49 38.92111 -105.95788 13482 ft 154 kts 18°
2026-05-07 18:50 38.93087 -105.95208 13474 ft 156 kts 18°
2026-05-07 18:50 38.94061 -105.94591 13467 ft 155 kts 18°
2026-05-07 18:50 38.95021 -105.93978 13460 ft 155 kts 18°
2026-05-07 18:50 38.95994 -105.93373 13337 ft 155 kts 17°
2026-05-07 18:51 38.96949 -105.92757 13334 ft 153 kts 18°
2026-05-07 18:51 38.97897 -105.92151 13378 ft 148 kts 18°
2026-05-07 18:51 38.98812 -105.91562 13443 ft 146 kts 18°
2026-05-07 18:51 38.99717 -105.90968 13446 ft 148 kts 18°
2026-05-07 18:52 39.00648 -105.90373 13453 ft 150 kts 17°
2026-05-07 18:52 39.01583 -105.89786 13459 ft 150 kts 18°
2026-05-07 18:52 39.02515 -105.89181 13510 ft 151 kts 18°
2026-05-07 18:52 39.03462 -105.88575 13510 ft 152 kts 18°
2026-05-07 18:53 39.04415 -105.87986 13507 ft 153 kts 18°
2026-05-07 18:53 39.05367 -105.87374 13507 ft 153 kts 18°
2026-05-07 18:53 39.06325 -105.86758 13453 ft 156 kts 17°
2026-05-07 18:53 39.07417 -105.86307 13190 ft 167 kts
2026-05-07 18:54 39.08520 -105.85895 13080 ft 163 kts
2026-05-07 18:54 39.09610 -105.85814 12850 ft 152 kts 352°
2026-05-07 18:54 39.10660 -105.85836 12494 ft 151 kts 353°
2026-05-07 18:54 39.11720 -105.85837 12161 ft 153 kts 350°
2026-05-07 18:55 39.12768 -105.85907 11877 ft 150 kts 350°
2026-05-07 18:55 39.13808 -105.86007 11554 ft 149 kts 350°
2026-05-07 18:55 39.14812 -105.85959 11360 ft 141 kts 359°
2026-05-07 18:55 39.15706 -105.85535 11215 ft 139 kts 19°
2026-05-07 18:56 39.16518 -105.84871 11230 ft 139 kts 27°
2026-05-07 18:56 39.17300 -105.84146 11353 ft 138 kts 27°
2026-05-07 18:56 39.18108 -105.83478 11444 ft 138 kts 20°
2026-05-07 18:56 39.18947 -105.82895 11557 ft 137 kts 13°
2026-05-07 18:57 39.19857 -105.82502 11588 ft 139 kts
2026-05-07 18:57 39.20818 -105.82241 11587 ft 143 kts 359°
2026-05-07 18:57 39.21482 -105.82166 11602 ft 145 kts 358°
2026-05-07 18:57 39.22515 -105.82066 11601 ft 148 kts 356°
2026-05-07 18:58 39.23525 -105.81990 11601 ft 147 kts 356°
2026-05-07 18:58 39.24549 -105.81915 11597 ft 148 kts 355°
2026-05-07 18:58 39.25575 -105.81840 11598 ft 148 kts 357°
2026-05-07 18:58 39.26602 -105.81747 11598 ft 147 kts 356°
2026-05-07 18:59 39.27625 -105.81658 11593 ft 147 kts 356°
2026-05-07 18:59 39.28645 -105.81582 11595 ft 146 kts 356°
2026-05-07 18:59 39.29665 -105.81499 11595 ft 147 kts 356°
2026-05-07 18:59 39.30680 -105.81412 11610 ft 146 kts 356°
2026-05-07 19:00 39.31693 -105.81337 11611 ft 146 kts 357°
2026-05-07 19:00 39.32709 -105.81239 11614 ft 145 kts
2026-05-07 19:00 39.33716 -105.80997 11613 ft 148 kts
2026-05-07 19:00 39.34714 -105.80743 11731 ft 139 kts
2026-05-07 19:01 39.35626 -105.80422 11835 ft 136 kts 18°
2026-05-07 19:01 39.36413 -105.79716 11925 ft 139 kts 35°
2026-05-07 19:01 39.37104 -105.78845 12078 ft 137 kts 36°
2026-05-07 19:01 39.37748 -105.78030 12352 ft 123 kts 34°
2026-05-07 19:02 39.38316 -105.77196 12438 ft 131 kts 43°
2026-05-07 19:02 39.38849 -105.76324 12727 ft 117 kts 36°
2026-05-07 19:02 39.39444 -105.75583 12861 ft 117 kts 31°
2026-05-07 19:02 39.40010 -105.74866 13071 ft 116 kts 38°
2026-05-07 19:03 39.40499 -105.74035 13277 ft 113 kts 38°
2026-05-07 19:03 39.40997 -105.73252 13430 ft 114 kts 38°
2026-05-07 19:03 39.41487 -105.72445 13547 ft 116 kts 41°
2026-05-07 19:03 39.41965 -105.71569 13699 ft 120 kts 38°
2026-05-07 19:04 39.42453 -105.70761 13901 ft 113 kts 38°
2026-05-07 19:04 39.42967 -105.69942 13979 ft 115 kts 37°
2026-05-07 19:04 39.43477 -105.69151 14095 ft 117 kts 37°
2026-05-07 19:04 39.43999 -105.68359 14162 ft 118 kts 36°
2026-05-07 19:05 39.44513 -105.67537 14274 ft 113 kts 37°
2026-05-07 19:05 39.44894 -105.66929 14322 ft 113 kts 36°